Time,TemperatureF,DewpointF,PressureIn,WindDirection,WindDirectionDegrees,WindSpeedMPH,WindSpeedGustMPH,Humidity,HourlyPrecipIn,Conditions,Clouds,dailyrainin,SolarRadiationWatts/m^2,SoftwareType,DateUTC
2013-10-07 00:04:00,43.0,38.5,30.30,ESE,109,0.0,0.0,84,0.00,FEW,,0.00,0.0,WeatherDisplay:10.37,2013-10-06 22:04:00,
2013-10-07 00:09:00,43.2,38.7,30.30,ESE,109,0.0,0.0,84,0.00,FEW,,0.00,0.0,WeatherDisplay:10.37,2013-10-06 22:09:00,
2013-10-07 00:14:00,43.4,38.9,30.30,ESE,109,0.0,0.0,84,0.00,FEW,,0.00,0.0,WeatherDisplay:10.37,2013-10-06 22:14:00,
2013-10-07 00:19:00,43.6,39.1,30.30,ESE,109,0.0,0.0,84,0.00,FEW,,0.00,0.0,WeatherDisplay:10.37,2013-10-06 22:19:00,
2013-10-07 00:24:00,43.8,39.3,30.30,ESE,109,0.0,0.0,84,0.00,FEW,,0.00,0.0,WeatherDisplay:10.37,2013-10-06 22:24:00,
2013-10-07 00:29:00,44.0,39.5,30.30,ESE,109,0.0,0.0,84,0.00,FEW,,0.00,0.0,WeatherDisplay:10.37,2013-10-06 22:29:00,
2013-10-07 00:34:00,44.2,39.7,30.30,ESE,109,0.0,0.0,84,0.00,FEW,,0.00,0.0,WeatherDisplay:10.37,2013-10-06 22:34:00,
2013-10-07 00:39:00,44.4,39.9,30.30,ESE,109,0.0,0.0,84,0.00,FEW,,0.00,0.0,WeatherDisplay:10.37,2013-10-06 22:39:00,
2013-10-07 00:44:00,44.6,40.1,30.30,ESE,109,0.0,0.0,84,0.00,FEW,,0.00,0.0,WeatherDisplay:10.37,2013-10-06 22:44:00,
2013-10-07 00:49:00,44.8,40.3,30.30,ESE,109,0.0,0.0,84,0.00,FEW,,0.00,0.0,WeatherDisplay:10.37,2013-10-06 22:49:00,
2013-10-07 00:54:00,45.0,40.1,30.30,ESE,109,0.0,0.0,83,0.00,FEW,,0.00,0.0,WeatherDisplay:10.37,2013-10-06 22:54:00,
2013-10-07 00:59:00,45.2,40.3,30.30,ESE,109,0.0,0.0,83,0.00,FEW,,0.00,0.0,WeatherDisplay:10.37,2013-10-06 22:59:00,
2013-10-07 01:04:00,45.3,40.4,30.30,ESE,109,0.0,0.0,83,0.00,FEW,,0.00,0.0,WeatherDisplay:10.37,2013-10-06 23:04:00,
2013-10-07 01:09:00,45.5,40.6,30.30,ESE,109,0.0,0.0,83,0.00,FEW,,0.00,0.0,WeatherDisplay:10.37,2013-10-06 23:09:00,
2013-10-07 01:14:00,45.7,40.8,30.30,ESE,109,0.0,0.0,83,0.00,FEW,,0.00,0.0,WeatherDisplay:10.37,2013-10-06 23:14:00,
2013-10-07 01:19:00,45.8,40.6,30.30,ESE,109,0.0,0.0,82,0.00,FEW,,0.00,0.0,WeatherDisplay:10.37,2013-10-06 23:19:00,
2013-10-07 01:24:00,45.9,40.7,30.30,ESE,109,0.0,0.0,82,0.00,FEW,,0.00,0.0,WeatherDisplay:10.37,2013-10-06 23:24:00,
2013-10-07 01:29:00,46.0,40.8,30.31,ESE,109,0.0,0.0,82,0.00,FEW,,0.00,0.0,WeatherDisplay:10.37,2013-10-06 23:29:00,
2013-10-07 01:34:00,46.1,40.9,30.31,ESE,109,0.0,0.0,82,0.00,FEW,,0.00,0.0,WeatherDisplay:10.37,2013-10-06 23:34:00,
2013-10-07 01:39:00,46.2,40.7,30.31,ESE,109,0.0,0.0,81,0.00,FEW,,0.00,0.0,WeatherDisplay:10.37,2013-10-06 23:39:00,
2013-10-07 01:44:00,46.2,41.0,30.31,ESE,109,0.0,0.0,82,0.00,FEW,,0.00,0.0,WeatherDisplay:10.37,2013-10-06 23:44:00,
2013-10-07 01:49:00,46.3,40.8,30.31,ESE,109,0.0,0.0,81,0.00,FEW,,0.00,0.0,WeatherDisplay:10.37,2013-10-06 23:49:00,
2013-10-07 01:54:00,46.3,40.8,30.31,ESE,109,0.0,0.0,81,0.00,FEW,,0.00,0.0,WeatherDisplay:10.37,2013-10-06 23:54:00,
2013-10-07 01:59:00,46.3,40.8,30.31,ESE,109,0.0,0.0,81,0.00,FEW,,0.00,0.0,WeatherDisplay:10.37,2013-10-06 23:59:00,
2013-10-07 02:04:00,46.3,40.8,30.31,ESE,109,0.0,0.0,81,0.00,FEW,,0.00,0.0,WeatherDisplay:10.37,2013-10-07 00:04:00,
2013-10-07 02:09:00,46.4,40.9,30.31,ESE,109,0.0,0.0,81,0.00,FEW,,0.00,0.0,WeatherDisplay:10.37,2013-10-07 00:09:00,
2013-10-07 02:14:00,46.4,40.9,30.30,ESE,109,0.0,0.0,81,0.00,FEW,,0.00,0.0,WeatherDisplay:10.37,2013-10-07 00:14:00,
2013-10-07 02:19:00,46.4,40.9,30.30,ESE,109,0.0,0.0,81,0.00,FEW,,0.00,0.0,WeatherDisplay:10.37,2013-10-07 00:19:00,
2013-10-07 02:24:00,46.3,40.8,30.30,ESE,109,0.0,0.0,81,0.00,FEW,,0.00,0.0,WeatherDisplay:10.37,2013-10-07 00:24:00,
2013-10-07 02:29:00,46.4,40.9,30.30,ESE,109,0.0,0.0,81,0.00,FEW,,0.00,0.0,WeatherDisplay:10.37,2013-10-07 00:29:00,
2013-10-07 02:34:00,46.4,40.9,30.30,ESE,109,0.0,0.0,81,0.00,FEW,,0.00,0.0,WeatherDisplay:10.37,2013-10-07 00:34:00,
2013-10-07 02:39:00,46.5,41.0,30.30,ESE,109,0.0,0.0,81,0.00,FEW,,0.00,0.0,WeatherDisplay:10.37,2013-10-07 00:39:00,
2013-10-07 02:44:00,46.5,41.0,30.30,ESE,109,0.0,0.0,81,0.00,FEW,,0.00,0.0,WeatherDisplay:10.37,2013-10-07 00:44:00,
2013-10-07 02:49:00,46.5,41.0,30.30,ESE,109,0.0,0.0,81,0.00,FEW,,0.00,0.0,WeatherDisplay:10.37,2013-10-07 00:49:00,
2013-10-07 02:54:00,46.5,41.0,30.30,ESE,109,0.0,0.0,81,0.00,FEW,,0.00,0.0,WeatherDisplay:10.37,2013-10-07 00:54:00,
2013-10-07 02:59:00,46.6,41.1,30.30,ESE,109,0.0,0.0,81,0.00,FEW,,0.00,0.0,WeatherDisplay:10.37,2013-10-07 00:59:00,
2013-10-07 03:04:00,46.7,41.2,30.30,ESE,109,0.0,0.0,81,0.00,FEW,,0.00,0.0,WeatherDisplay:10.37,2013-10-07 01:04:00,
2013-10-07 03:09:00,46.8,41.6,30.30,ESE,109,0.0,0.0,82,0.00,FEW,,0.00,0.0,WeatherDisplay:10.37,2013-10-07 01:09:00,
2013-10-07 03:14:00,46.9,41.7,30.30,ESE,109,0.0,0.0,82,0.00,FEW,,0.00,0.0,WeatherDisplay:10.37,2013-10-07 01:14:00,
2013-10-07 03:19:00,47.0,41.8,30.30,ESE,109,0.0,0.0,82,0.00,FEW,,0.00,0.0,WeatherDisplay:10.37,2013-10-07 01:19:00,
2013-10-07 03:24:00,47.0,41.8,30.30,ESE,109,0.0,0.0,82,0.00,FEW,,0.00,0.0,WeatherDisplay:10.37,2013-10-07 01:24:00,
2013-10-07 03:29:00,47.1,41.9,30.30,ESE,109,0.0,0.0,82,0.00,FEW,,0.00,0.0,WeatherDisplay:10.37,2013-10-07 01:29:00,
2013-10-07 03:34:00,47.1,41.9,30.31,ESE,109,0.0,0.0,82,0.00,FEW,,0.00,0.0,WeatherDisplay:10.37,2013-10-07 01:34:00,
2013-10-07 03:39:00,47.1,41.6,30.31,ESE,109,0.0,0.0,81,0.00,FEW,,0.00,0.0,WeatherDisplay:10.37,2013-10-07 01:39:00,
2013-10-07 03:44:00,47.2,41.7,30.31,ESE,109,0.0,0.0,81,0.00,FEW,,0.00,0.0,WeatherDisplay:10.37,2013-10-07 01:44:00,
2013-10-07 03:49:00,47.2,41.7,30.31,ESE,109,0.0,0.0,81,0.00,FEW,,0.00,0.0,WeatherDisplay:10.37,2013-10-07 01:49:00,
2013-10-07 03:54:00,47.3,41.8,30.31,ESE,109,0.0,0.0,81,0.00,FEW,,0.00,0.0,WeatherDisplay:10.37,2013-10-07 01:54:00,
2013-10-07 03:59:00,47.5,42.0,30.31,ESE,109,0.0,0.0,81,0.00,FEW,,0.00,0.0,WeatherDisplay:10.37,2013-10-07 01:59:00,
2013-10-07 04:04:00,47.5,42.0,30.30,ESE,109,0.0,0.0,81,0.00,FEW,,0.00,0.0,WeatherDisplay:10.37,2013-10-07 02:04:00,
2013-10-07 04:09:00,47.7,42.2,30.30,ESE,109,0.0,0.0,81,0.00,FEW,,0.00,0.0,WeatherDisplay:10.37,2013-10-07 02:09:00,
2013-10-07 04:14:00,47.7,42.2,30.30,ESE,109,0.0,0.0,81,0.00,FEW,,0.00,0.0,WeatherDisplay:10.37,2013-10-07 02:14:00,
2013-10-07 04:19:00,47.8,41.9,30.31,ESE,109,0.0,0.0,80,0.00,FEW,,0.00,0.0,WeatherDisplay:10.37,2013-10-07 02:19:00,
2013-10-07 04:24:00,47.8,41.9,30.31,ESE,109,0.0,0.0,80,0.00,FEW,,0.00,0.0,WeatherDisplay:10.37,2013-10-07 02:24:00,
2013-10-07 04:29:00,47.9,42.0,30.31,ESE,109,0.0,0.0,80,0.00,FEW,,0.00,0.0,WeatherDisplay:10.37,2013-10-07 02:29:00,
2013-10-07 04:34:00,47.9,42.0,30.31,ESE,109,0.0,0.0,80,0.00,FEW,,0.00,0.0,WeatherDisplay:10.37,2013-10-07 02:34:00,
2013-10-07 04:39:00,48.0,42.1,30.31,ESE,109,0.0,1.2,80,0.00,FEW,,0.00,0.0,WeatherDisplay:10.37,2013-10-07 02:39:00,
2013-10-07 04:44:00,48.0,42.1,30.31,ESE,109,0.0,0.0,80,0.00,FEW,,0.00,0.0,WeatherDisplay:10.37,2013-10-07 02:44:00,
2013-10-07 04:49:00,48.1,42.2,30.31,ESE,109,0.0,0.0,80,0.00,FEW,,0.00,0.0,WeatherDisplay:10.37,2013-10-07 02:49:00,
2013-10-07 04:54:00,48.2,42.3,30.31,ESE,109,0.0,0.0,80,0.00,FEW,,0.00,0.0,WeatherDisplay:10.37,2013-10-07 02:54:00,
2013-10-07 04:59:00,48.2,42.6,30.31,ESE,109,0.0,0.0,81,0.00,FEW,,0.00,0.0,WeatherDisplay:10.37,2013-10-07 02:59:00,
2013-10-07 05:04:00,48.2,42.3,30.31,ESE,109,0.0,0.0,80,0.00,FEW,,0.00,0.0,WeatherDisplay:10.37,2013-10-07 03:04:00,
2013-10-07 05:09:00,48.2,42.3,30.30,ESE,109,0.0,0.0,80,0.00,FEW,,0.00,0.0,WeatherDisplay:10.37,2013-10-07 03:09:00,
2013-10-07 05:14:00,48.2,42.3,30.31,ESE,109,0.0,0.0,80,0.00,FEW,,0.00,0.0,WeatherDisplay:10.37,2013-10-07 03:14:00,
2013-10-07 05:19:00,48.2,42.6,30.31,ESE,109,0.0,0.0,81,0.00,FEW,,0.00,0.0,WeatherDisplay:10.37,2013-10-07 03:19:00,
2013-10-07 05:24:00,48.3,42.4,30.31,ESE,109,0.0,0.0,80,0.00,FEW,,0.00,0.0,WeatherDisplay:10.37,2013-10-07 03:24:00,
2013-10-07 05:29:00,48.2,42.3,30.31,ESE,109,0.0,0.0,80,0.00,FEW,,0.00,0.0,WeatherDisplay:10.37,2013-10-07 03:29:00,
2013-10-07 05:34:00,48.2,42.3,30.31,ESE,109,0.0,0.0,80,0.00,FEW,,0.00,0.0,WeatherDisplay:10.37,2013-10-07 03:34:00,
2013-10-07 05:39:00,48.3,42.4,30.31,ESE,109,0.0,0.0,80,0.00,FEW,,0.00,0.0,WeatherDisplay:10.37,2013-10-07 03:39:00,
2013-10-07 05:44:00,48.3,42.4,30.31,ESE,109,0.0,0.0,80,0.00,FEW,,0.00,0.0,WeatherDisplay:10.37,2013-10-07 03:44:00,
2013-10-07 05:49:00,48.3,42.4,30.31,ESE,109,0.0,0.0,80,0.00,FEW,,0.00,0.0,WeatherDisplay:10.37,2013-10-07 03:49:00,
2013-10-07 05:54:00,48.3,42.4,30.31,ESE,109,0.0,0.0,80,0.00,FEW,,0.00,0.0,WeatherDisplay:10.37,2013-10-07 03:54:00,
2013-10-07 05:59:00,48.3,42.4,30.31,ESE,109,0.0,0.0,80,0.00,FEW,,0.00,0.0,WeatherDisplay:10.37,2013-10-07 03:59:00,
2013-10-07 06:01:00,48.3,42.4,30.31,ESE,109,0.0,0.0,80,0.00,FEW,,0.00,0.0,WeatherDisplay:10.37,2013-10-07 04:01:00,
2013-10-07 06:02:00,48.4,42.5,30.31,ESE,109,0.0,0.0,80,0.00,FEW,,0.00,0.0,WeatherDisplay:10.37,2013-10-07 04:02:00,
2013-10-07 06:03:00,48.3,42.4,30.31,ESE,109,0.0,0.0,80,0.00,FEW,,0.00,0.0,WeatherDisplay:10.37,2013-10-07 04:03:00,
2013-10-07 06:04:00,48.3,42.4,30.31,ESE,109,0.0,0.0,80,0.00,FEW,,0.00,0.0,WeatherDisplay:10.37,2013-10-07 04:04:00,
2013-10-07 06:08:00,48.3,42.4,30.31,ESE,109,0.0,0.0,80,0.00,FEW,,0.00,0.0,WeatherDisplay:10.37,2013-10-07 04:08:00,
2013-10-07 06:13:00,48.3,42.4,30.31,ESE,109,0.0,0.0,80,0.00,FEW,,0.00,0.0,WeatherDisplay:10.37,2013-10-07 04:13:00,
2013-10-07 06:18:00,48.3,42.4,30.31,ESE,109,0.0,0.0,80,0.00,FEW,,0.00,0.0,WeatherDisplay:10.37,2013-10-07 04:18:00,
2013-10-07 06:20:00,48.3,42.4,30.31,ESE,109,0.0,0.0,80,0.00,FEW,,0.00,0.0,WeatherDisplay:10.37,2013-10-07 04:20:00,
2013-10-07 06:25:00,48.3,42.4,30.31,ESE,109,0.0,0.0,80,0.00,FEW,,0.00,0.0,WeatherDisplay:10.37,2013-10-07 04:25:00,
2013-10-07 06:30:00,48.3,42.4,30.31,ESE,109,0.0,0.0,80,0.00,FEW,,0.00,0.0,WeatherDisplay:10.37,2013-10-07 04:30:00,
2013-10-07 06:35:00,48.3,42.4,30.32,ESE,109,0.0,0.0,80,0.00,FEW,,0.00,0.0,WeatherDisplay:10.37,2013-10-07 04:35:00,
2013-10-07 06:40:00,48.3,42.4,30.32,ESE,109,0.0,0.0,80,0.00,FEW,,0.00,0.0,WeatherDisplay:10.37,2013-10-07 04:40:00,
2013-10-07 06:45:00,48.3,42.7,30.32,ESE,109,0.0,0.0,81,0.00,FEW,,0.00,0.0,WeatherDisplay:10.37,2013-10-07 04:45:00,
2013-10-07 06:50:00,48.2,42.6,30.32,ESE,109,0.0,0.0,81,0.00,FEW,,0.00,0.0,WeatherDisplay:10.37,2013-10-07 04:50:00,
2013-10-07 06:55:00,48.3,42.7,30.32,ESE,109,0.0,0.0,81,0.00,FEW,,0.00,0.0,WeatherDisplay:10.37,2013-10-07 04:55:00,
2013-10-07 07:00:00,48.3,42.7,30.32,ESE,109,0.0,0.0,81,0.00,FEW,,0.00,0.0,WeatherDisplay:10.37,2013-10-07 05:00:00,
2013-10-07 07:05:00,48.3,42.7,30.32,ESE,109,0.0,0.0,81,0.00,FEW,,0.00,5.0,WeatherDisplay:10.37,2013-10-07 05:05:00,
2013-10-07 07:10:00,48.3,42.7,30.32,ESE,109,0.0,0.0,81,0.00,FEW,,0.00,7.0,WeatherDisplay:10.37,2013-10-07 05:10:00,
2013-10-07 07:15:00,48.3,42.7,30.33,ESE,109,0.0,0.0,81,0.00,FEW,,0.00,9.0,WeatherDisplay:10.37,2013-10-07 05:15:00,
2013-10-07 07:20:00,48.4,42.8,30.33,ESE,109,0.0,0.0,81,0.00,FEW,,0.00,11.0,WeatherDisplay:10.37,2013-10-07 05:20:00,
2013-10-07 07:25:00,48.4,42.8,30.33,ESE,109,0.0,0.0,81,0.00,FEW,,0.00,16.0,WeatherDisplay:10.37,2013-10-07 05:25:00,
2013-10-07 07:30:00,48.4,42.8,30.33,ESE,109,0.0,0.0,81,0.00,FEW,,0.00,21.0,WeatherDisplay:10.37,2013-10-07 05:30:00,
2013-10-07 07:35:00,48.5,42.9,30.33,ESE,109,0.0,0.0,81,0.00,FEW,,0.00,26.0,WeatherDisplay:10.37,2013-10-07 05:35:00,
2013-10-07 07:40:00,48.5,42.9,30.33,ESE,109,0.0,0.0,81,0.00,FEW,,0.00,32.0,WeatherDisplay:10.37,2013-10-07 05:40:00,
2013-10-07 07:45:00,48.6,43.0,30.33,ESE,109,0.0,0.0,81,0.00,FEW,,0.00,37.0,WeatherDisplay:10.37,2013-10-07 05:45:00,
2013-10-07 07:50:00,48.7,42.8,30.33,ESE,109,0.0,0.0,80,0.00,BKN,,0.00,40.0,WeatherDisplay:10.37,2013-10-07 05:50:00,
2013-10-07 07:55:00,48.8,42.9,30.33,ESE,109,0.0,0.0,80,0.00,BKN,,0.00,42.0,WeatherDisplay:10.37,2013-10-07 05:55:00,
2013-10-07 08:00:00,49.0,42.8,30.33,ESE,109,0.0,0.0,79,0.00,BKN,,0.00,47.0,WeatherDisplay:10.37,2013-10-07 06:00:00,
2013-10-07 08:05:00,49.2,43.0,30.33,ESE,109,0.0,0.0,79,0.00,BKN,,0.00,58.0,WeatherDisplay:10.37,2013-10-07 06:05:00,
2013-10-07 08:10:00,49.4,42.8,30.33,ESE,109,0.0,0.0,78,0.00,BKN,,0.00,70.0,WeatherDisplay:10.37,2013-10-07 06:10:00,
2013-10-07 08:15:00,49.6,43.0,30.33,ESE,109,0.0,0.0,78,0.00,SCT,,0.00,77.0,WeatherDisplay:10.37,2013-10-07 06:15:00,
2013-10-07 08:20:00,49.9,43.3,30.34,ESE,109,0.0,0.0,78,0.00,SCT,,0.00,83.0,WeatherDisplay:10.37,2013-10-07 06:20:00,
2013-10-07 08:25:00,50.2,43.6,30.34,ESE,109,0.0,0.0,78,0.00,SCT,,0.00,88.0,WeatherDisplay:10.37,2013-10-07 06:25:00,
2013-10-07 08:30:00,50.5,43.2,30.34,ESE,109,0.0,0.0,76,0.00,SCT,,0.00,91.0,WeatherDisplay:10.37,2013-10-07 06:30:00,
2013-10-07 08:35:00,50.7,43.1,30.34,ESE,109,0.0,0.0,75,0.00,SCT,,0.00,98.0,WeatherDisplay:10.37,2013-10-07 06:35:00,
2013-10-07 08:40:00,51.0,42.6,30.34,ESE,109,0.9,2.3,73,0.00,SCT,,0.00,105.0,WeatherDisplay:10.37,2013-10-07 06:40:00,
2013-10-07 08:45:00,51.3,41.5,30.34,ESE,115,1.6,3.5,69,0.00,SCT,,0.00,114.0,WeatherDisplay:10.37,2013-10-07 06:45:00,
2013-10-07 08:50:00,51.6,41.0,30.34,ESE,107,0.2,3.5,67,0.00,SCT,,0.00,128.0,WeatherDisplay:10.37,2013-10-07 06:50:00,
2013-10-07 08:55:00,52.0,41.0,30.34,ESE,106,0.3,2.3,66,0.00,SCT,,0.00,135.0,WeatherDisplay:10.37,2013-10-07 06:55:00,
2013-10-07 09:00:00,52.3,40.9,30.34,ESE,113,0.1,3.5,65,0.00,SCT,,0.00,134.0,WeatherDisplay:10.37,2013-10-07 07:00:00,
2013-10-07 09:05:00,52.6,40.4,30.34,East,82,0.8,2.3,63,0.00,SCT,,0.00,128.0,WeatherDisplay:10.37,2013-10-07 07:05:00,
2013-10-07 09:10:00,52.8,40.1,30.34,East,85,1.3,2.3,62,0.00,SCT,,0.00,130.0,WeatherDisplay:10.37,2013-10-07 07:10:00,
2013-10-07 09:15:00,53.1,40.4,30.35,East,82,1.2,2.3,62,0.00,SCT,,0.00,127.0,WeatherDisplay:10.37,2013-10-07 07:15:00,
2013-10-07 09:20:00,53.2,39.7,30.35,East,81,1.2,3.5,60,0.00,SCT,,0.00,130.0,WeatherDisplay:10.37,2013-10-07 07:20:00,
2013-10-07 09:25:00,53.4,39.9,30.35,East,90,1.4,3.5,60,0.00,SCT,,0.00,137.0,WeatherDisplay:10.37,2013-10-07 07:25:00,
2013-10-07 09:30:00,53.5,39.9,30.35,East,89,0.0,1.2,60,0.00,SCT,,0.00,137.0,WeatherDisplay:10.37,2013-10-07 07:30:00,
2013-10-07 09:35:00,53.5,39.9,30.35,East,88,0.0,2.3,60,0.00,SCT,,0.00,148.0,WeatherDisplay:10.37,2013-10-07 07:35:00,
2013-10-07 09:40:00,53.6,40.0,30.35,East,89,0.1,2.3,60,0.00,SCT,,0.00,163.0,WeatherDisplay:10.37,2013-10-07 07:40:00,
2013-10-07 09:45:00,53.8,40.2,30.34,East,88,0.1,1.2,60,0.00,SCT,,0.00,174.0,WeatherDisplay:10.37,2013-10-07 07:45:00,
2013-10-07 09:50:00,53.9,40.3,30.35,East,88,0.1,1.2,60,0.00,SCT,,0.00,174.0,WeatherDisplay:10.37,2013-10-07 07:50:00,
2013-10-07 09:55:00,54.1,40.5,30.35,East,89,0.1,1.2,60,0.00,SCT,,0.00,176.0,WeatherDisplay:10.37,2013-10-07 07:55:00,
2013-10-07 10:00:00,54.2,40.2,30.35,East,88,0.0,1.2,59,0.00,SCT,,0.00,176.0,WeatherDisplay:10.37,2013-10-07 08:00:00,
2013-10-07 10:05:00,54.4,40.4,30.35,East,88,0.0,0.0,59,0.00,SCT,,0.00,176.0,WeatherDisplay:10.37,2013-10-07 08:05:00,
2013-10-07 10:10:00,54.6,40.1,30.35,East,88,0.0,0.0,58,0.00,SCT,,0.00,176.0,WeatherDisplay:10.37,2013-10-07 08:10:00,
2013-10-07 10:15:00,54.8,40.3,30.35,SE,138,0.0,2.3,58,0.00,SCT,,0.00,178.0,WeatherDisplay:10.37,2013-10-07 08:15:00,
2013-10-07 10:20:00,55.0,40.5,30.35,SSW,205,1.2,3.5,58,0.00,SCT,,0.00,174.0,WeatherDisplay:10.37,2013-10-07 08:20:00,
2013-10-07 10:25:00,55.1,39.7,30.35,SSW,205,0.1,1.2,56,0.00,BKN,,0.00,171.0,WeatherDisplay:10.37,2013-10-07 08:25:00,
2013-10-07 10:30:00,55.3,39.9,30.35,SSW,205,0.1,1.2,56,0.00,BKN,,0.00,174.0,WeatherDisplay:10.37,2013-10-07 08:30:00,
2013-10-07 10:35:00,55.5,40.0,30.35,SSW,213,0.1,2.3,56,0.00,BKN,,0.00,190.0,WeatherDisplay:10.37,2013-10-07 08:35:00,
2013-10-07 10:40:00,55.6,40.6,30.35,SW,215,0.8,2.3,57,0.00,BKN,,0.00,207.0,WeatherDisplay:10.37,2013-10-07 08:40:00,
2013-10-07 10:45:00,55.7,39.3,30.35,SW,216,1.0,2.3,54,0.00,SCT,,0.00,211.0,WeatherDisplay:10.37,2013-10-07 08:45:00,
2013-10-07 10:50:00,55.8,39.4,30.35,SW,216,0.0,0.0,54,0.00,SCT,,0.00,192.0,WeatherDisplay:10.37,2013-10-07 08:50:00,
2013-10-07 10:55:00,55.8,39.4,30.35,SW,216,0.1,1.2,54,0.00,BKN,,0.00,190.0,WeatherDisplay:10.37,2013-10-07 08:55:00,
2013-10-07 11:00:00,56.0,39.6,30.36,SW,216,0.0,0.0,54,0.00,BKN,,0.00,197.0,WeatherDisplay:10.37,2013-10-07 09:00:00,
2013-10-07 11:05:00,56.2,40.7,30.35,SW,216,0.0,1.2,56,0.00,BKN,,0.00,207.0,WeatherDisplay:10.37,2013-10-07 09:05:00,
2013-10-07 11:10:00,56.4,39.5,30.36,SW,216,0.0,1.0,53,0.00,BKN,,0.00,209.0,WeatherDisplay:10.37,2013-10-07 09:10:00,
2013-10-07 11:15:00,56.6,40.6,30.36,SW,216,0.1,1.2,55,0.00,BKN,,0.00,213.0,WeatherDisplay:10.37,2013-10-07 09:15:00,
2013-10-07 11:20:00,56.8,39.8,30.36,SW,216,0.4,1.2,53,0.00,SCT,,0.00,218.0,WeatherDisplay:10.37,2013-10-07 09:20:00,
2013-10-07 11:25:00,56.9,39.4,30.36,SW,216,0.0,0.0,52,0.00,SCT,,0.00,216.0,WeatherDisplay:10.37,2013-10-07 09:25:00,
2013-10-07 11:30:00,57.0,39.5,30.36,NNW,336,0.7,2.3,52,0.00,SCT,,0.00,229.0,WeatherDisplay:10.37,2013-10-07 09:30:00,
2013-10-07 11:35:00,57.0,39.5,30.35,NNW,336,0.8,2.0,52,0.00,SCT,,0.00,452.0,WeatherDisplay:10.37,2013-10-07 09:35:00,
2013-10-07 11:40:00,57.5,40.0,30.36,NW,319,0.1,2.3,52,0.00,FEW,,0.00,483.0,WeatherDisplay:10.37,2013-10-07 09:40:00,
2013-10-07 11:45:00,58.2,39.6,30.35,NW,324,1.6,3.5,50,0.00,CLR,,0.00,366.0,WeatherDisplay:10.37,2013-10-07 09:45:00,
2013-10-07 11:50:00,58.4,38.8,30.36,NNW,327,0.0,2.3,48,0.00,FEW,,0.00,367.0,WeatherDisplay:10.37,2013-10-07 09:50:00,
2013-10-07 11:55:00,58.5,38.9,30.35,NNW,327,1.4,2.3,48,0.00,FEW,,0.00,376.0,WeatherDisplay:10.37,2013-10-07 09:55:00,
2013-10-07 12:00:00,58.8,40.2,30.35,NW,321,1.1,3.5,50,0.00,FEW,,0.00,394.0,WeatherDisplay:10.37,2013-10-07 10:00:00,
2013-10-07 12:05:00,59.3,39.6,30.35,NW,321,0.7,3.0,48,0.00,FEW,,0.00,366.0,WeatherDisplay:10.37,2013-10-07 10:05:00,
2013-10-07 12:10:00,59.8,40.1,30.35,North,350,2.2,3.5,48,0.00,FEW,,0.00,355.0,WeatherDisplay:10.37,2013-10-07 10:10:00,
2013-10-07 12:15:00,60.0,39.7,30.35,North,355,1.0,3.5,47,0.00,FEW,,0.00,323.0,WeatherDisplay:10.37,2013-10-07 10:15:00,
2013-10-07 12:20:00,60.1,39.2,30.35,NNE,19,1.0,2.3,46,0.00,SCT,,0.00,329.0,WeatherDisplay:10.37,2013-10-07 10:20:00,
2013-10-07 12:25:00,60.2,39.3,30.35,NNW,338,1.4,3.5,46,0.00,SCT,,0.00,332.0,WeatherDisplay:10.37,2013-10-07 10:25:00,
2013-10-07 12:30:00,60.3,39.4,30.35,NNW,330,1.5,3.0,46,0.00,SCT,,0.00,339.0,WeatherDisplay:10.37,2013-10-07 10:30:00,
2013-10-07 12:35:00,60.6,39.7,30.35,NE,36,0.9,4.0,46,0.00,SCT,,0.00,322.0,WeatherDisplay:10.37,2013-10-07 10:35:00,
2013-10-07 12:40:00,60.8,39.3,30.35,North,9,0.7,3.5,45,0.00,SCT,,0.00,338.0,WeatherDisplay:10.37,2013-10-07 10:40:00,
2013-10-07 12:45:00,61.1,39.6,30.34,NNW,336,1.6,3.0,45,0.00,FEW,,0.00,652.0,WeatherDisplay:10.37,2013-10-07 10:45:00,
2013-10-07 12:50:00,61.6,39.5,30.34,NNW,330,2.1,4.0,44,0.00,CLR,,0.00,359.0,WeatherDisplay:10.37,2013-10-07 10:50:00,
2013-10-07 12:55:00,62.0,39.8,30.34,NE,43,2.1,5.0,44,0.00,CLR,,0.00,323.0,WeatherDisplay:10.37,2013-10-07 10:55:00,
2013-10-07 13:00:00,62.4,39.6,30.34,NE,43,0.2,2.3,43,0.00,FEW,,0.00,605.0,WeatherDisplay:10.37,2013-10-07 11:00:00,
2013-10-07 13:05:00,62.6,39.2,30.34,NW,316,0.1,3.5,42,0.00,CLR,,0.00,427.0,WeatherDisplay:10.37,2013-10-07 11:05:00,
2013-10-07 13:10:00,62.8,39.4,30.34,NE,41,2.2,4.6,42,0.00,CLR,,0.00,564.0,WeatherDisplay:10.37,2013-10-07 11:10:00,
2013-10-07 13:15:00,63.0,40.1,30.34,NE,38,0.7,2.3,43,0.00,CLR,,0.00,550.0,WeatherDisplay:10.37,2013-10-07 11:15:00,
2013-10-07 13:20:00,63.3,39.2,30.34,NE,38,1.3,2.3,41,0.00,CLR,,0.00,446.0,WeatherDisplay:10.37,2013-10-07 11:20:00,
2013-10-07 13:25:00,63.5,39.4,30.33,NNW,336,1.6,6.0,41,0.00,CLR,,0.00,519.0,WeatherDisplay:10.37,2013-10-07 11:25:00,
2013-10-07 13:30:00,63.5,39.4,30.33,North,5,1.0,4.6,41,0.00,CLR,,0.00,503.0,WeatherDisplay:10.37,2013-10-07 11:30:00,
2013-10-07 13:35:00,63.6,39.5,30.33,NNW,338,1.3,4.6,41,0.00,CLR,,0.00,501.0,WeatherDisplay:10.37,2013-10-07 11:35:00,
2013-10-07 13:40:00,63.8,39.0,30.33,NNE,28,0.5,2.3,40,0.00,CLR,,0.00,496.0,WeatherDisplay:10.37,2013-10-07 11:40:00,
2013-10-07 13:45:00,63.8,39.6,30.33,North,360,2.7,5.8,41,0.00,CLR,,0.00,499.0,WeatherDisplay:10.37,2013-10-07 11:45:00,
2013-10-07 13:50:00,64.2,40.0,30.33,NNW,348,3.3,5.0,41,0.00,CLR,,0.00,497.0,WeatherDisplay:10.37,2013-10-07 11:50:00,
2013-10-07 13:55:00,64.4,40.2,30.32,North,5,1.4,5.0,41,0.00,CLR,,0.00,487.0,WeatherDisplay:10.37,2013-10-07 11:55:00,
2013-10-07 14:00:00,64.6,41.6,30.32,NNE,19,4.0,8.1,43,0.00,CLR,,0.00,466.0,WeatherDisplay:10.37,2013-10-07 12:00:00,
2013-10-07 14:05:00,64.6,41.6,30.32,ENE,62,1.7,5.8,43,0.00,CLR,,0.00,478.0,WeatherDisplay:10.37,2013-10-07 12:05:00,
2013-10-07 14:10:00,64.6,41.6,30.32,NNE,26,2.0,3.5,43,0.00,CLR,,0.00,469.0,WeatherDisplay:10.37,2013-10-07 12:10:00,
2013-10-07 14:15:00,64.5,41.5,30.32,ENE,73,1.8,5.8,43,0.00,CLR,,0.00,450.0,WeatherDisplay:10.37,2013-10-07 12:15:00,
2013-10-07 14:20:00,64.6,42.2,30.32,ENE,72,0.0,1.2,44,0.00,CLR,,0.00,420.0,WeatherDisplay:10.37,2013-10-07 12:20:00,
2013-10-07 14:25:00,64.8,41.8,30.32,ENE,61,2.2,5.0,43,0.00,CLR,,0.00,429.0,WeatherDisplay:10.37,2013-10-07 12:25:00,
2013-10-07 14:30:00,64.8,41.8,30.32,ESE,112,3.7,5.8,43,0.00,CLR,,0.00,454.0,WeatherDisplay:10.37,2013-10-07 12:30:00,
2013-10-07 14:35:00,64.7,41.1,30.32,SW,218,0.8,2.0,42,0.00,CLR,,0.00,432.0,WeatherDisplay:10.37,2013-10-07 12:35:00,
2013-10-07 14:40:00,64.8,41.8,30.32,North,355,0.7,2.3,43,0.00,CLR,,0.00,422.0,WeatherDisplay:10.37,2013-10-07 12:40:00,
2013-10-07 14:45:00,65.0,42.5,30.32,ENE,67,1.4,3.5,44,0.00,CLR,,0.00,413.0,WeatherDisplay:10.37,2013-10-07 12:45:00,
2013-10-07 14:50:00,64.9,41.2,30.32,North,350,2.7,5.8,42,0.00,CLR,,0.00,406.0,WeatherDisplay:10.37,2013-10-07 12:50:00,
2013-10-07 14:55:00,64.9,41.2,30.32,NNE,24,0.6,2.3,42,0.00,CLR,,0.00,396.0,WeatherDisplay:10.37,2013-10-07 12:55:00,
2013-10-07 15:00:00,65.0,41.9,30.31,NW,315,0.0,3.5,43,0.00,CLR,,0.00,380.0,WeatherDisplay:10.37,2013-10-07 13:00:00,
2013-10-07 15:05:00,65.1,41.4,30.31,ENE,57,1.6,3.5,42,0.00,CLR,,0.00,371.0,WeatherDisplay:10.37,2013-10-07 13:05:00,
2013-10-07 15:10:00,65.0,41.3,30.31,ENE,67,0.3,2.3,42,0.00,CLR,,0.00,352.0,WeatherDisplay:10.37,2013-10-07 13:10:00,
2013-10-07 15:15:00,65.1,42.0,30.32,ESE,109,1.8,3.0,43,0.00,CLR,,0.00,362.0,WeatherDisplay:10.37,2013-10-07 13:15:00,
2013-10-07 15:20:00,65.0,41.9,30.31,WNW,282,0.7,3.0,43,0.00,CLR,,0.00,348.0,WeatherDisplay:10.37,2013-10-07 13:20:00,
2013-10-07 15:25:00,65.3,42.2,30.31,East,90,3.4,8.1,43,0.00,CLR,,0.00,345.0,WeatherDisplay:10.37,2013-10-07 13:25:00,
2013-10-07 15:30:00,65.2,41.5,30.31,NNE,20,1.7,4.6,42,0.00,CLR,,0.00,288.0,WeatherDisplay:10.37,2013-10-07 13:30:00,
2013-10-07 15:35:00,65.1,41.4,30.31,NNE,26,0.3,3.5,42,0.00,CLR,,0.00,234.0,WeatherDisplay:10.37,2013-10-07 13:35:00,
2013-10-07 15:40:00,65.0,41.3,30.31,NE,52,2.7,5.0,42,0.00,FEW,,0.00,271.0,WeatherDisplay:10.37,2013-10-07 13:40:00,
2013-10-07 15:45:00,65.0,41.9,30.32,ENE,69,2.8,4.0,43,0.00,CLR,,0.00,304.0,WeatherDisplay:10.37,2013-10-07 13:45:00,
2013-10-07 15:50:00,65.0,41.9,30.31,ESE,105,1.2,2.3,43,0.00,CLR,,0.00,295.0,WeatherDisplay:10.37,2013-10-07 13:50:00,
2013-10-07 15:55:00,65.0,41.3,30.31,ESE,110,2.5,4.0,42,0.00,CLR,,0.00,285.0,WeatherDisplay:10.37,2013-10-07 13:55:00,
2013-10-07 16:00:00,65.0,41.9,30.31,ESE,112,0.3,2.3,43,0.00,CLR,,0.00,272.0,WeatherDisplay:10.37,2013-10-07 14:00:00,
2013-10-07 16:05:00,65.1,41.4,30.31,NE,40,1.4,3.5,42,0.00,CLR,,0.00,258.0,WeatherDisplay:10.37,2013-10-07 14:05:00,
2013-10-07 16:10:00,65.0,41.3,30.31,NE,54,3.4,4.0,42,0.00,CLR,,0.00,246.0,WeatherDisplay:10.37,2013-10-07 14:10:00,
2013-10-07 16:15:00,65.0,41.3,30.30,ENE,78,0.0,3.5,42,0.00,CLR,,0.00,234.0,WeatherDisplay:10.37,2013-10-07 14:15:00,
2013-10-07 16:20:00,65.0,41.3,30.30,NNE,24,1.1,3.5,42,0.00,CLR,,0.00,220.0,WeatherDisplay:10.37,2013-10-07 14:20:00,
2013-10-07 16:25:00,64.9,41.2,30.30,NE,37,0.6,2.3,42,0.00,CLR,,0.00,207.0,WeatherDisplay:10.37,2013-10-07 14:25:00,
2013-10-07 16:30:00,64.6,41.6,30.30,ENE,71,0.9,4.6,43,0.00,CLR,,0.00,190.0,WeatherDisplay:10.37,2013-10-07 14:30:00,
2013-10-07 16:35:00,64.7,41.7,30.30,NNE,15,2.7,5.0,43,0.00,CLR,,0.00,179.0,WeatherDisplay:10.37,2013-10-07 14:35:00,
2013-10-07 16:40:00,64.7,42.3,30.30,NE,39,1.0,3.5,44,0.00,CLR,,0.00,165.0,WeatherDisplay:10.37,2013-10-07 14:40:00,
2013-10-07 16:45:00,64.6,41.6,30.30,ENE,78,3.0,5.0,43,0.00,CLR,,0.00,151.0,WeatherDisplay:10.37,2013-10-07 14:45:00,
2013-10-07 16:50:00,64.5,42.1,30.30,NNE,24,0.8,4.6,44,0.00,CLR,,0.00,137.0,WeatherDisplay:10.37,2013-10-07 14:50:00,
2013-10-07 16:55:00,64.5,42.1,30.29,NE,42,0.7,3.5,44,0.00,CLR,,0.00,123.0,WeatherDisplay:10.37,2013-10-07 14:55:00,
2013-10-07 17:00:00,64.4,42.0,30.30,East,79,0.8,2.3,44,0.00,CLR,,0.00,111.0,WeatherDisplay:10.37,2013-10-07 15:00:00,
2013-10-07 17:05:00,64.2,42.4,30.30,East,99,1.0,4.0,45,0.00,CLR,,0.00,91.0,WeatherDisplay:10.37,2013-10-07 15:05:00,
2013-10-07 17:10:00,64.0,42.2,30.30,NNE,17,0.8,3.5,45,0.00,FEW,,0.00,77.0,WeatherDisplay:10.37,2013-10-07 15:10:00,
2013-10-07 17:15:00,63.9,42.7,30.30,North,11,1.2,3.5,46,0.00,SCT,,0.00,54.0,WeatherDisplay:10.37,2013-10-07 15:15:00,
2013-10-07 17:20:00,63.7,42.5,30.30,NNE,26,0.0,2.3,46,0.00,SCT,,0.00,39.0,WeatherDisplay:10.37,2013-10-07 15:20:00,
2013-10-07 17:25:00,63.6,42.4,30.30,ENE,66,0.2,3.5,46,0.00,SCT,,0.00,33.0,WeatherDisplay:10.37,2013-10-07 15:25:00,
2013-10-07 17:30:00,63.3,42.7,30.30,ENE,66,0.0,1.2,47,0.00,SCT,,0.00,37.0,WeatherDisplay:10.37,2013-10-07 15:30:00,
2013-10-07 17:35:00,63.0,43.0,30.30,ENE,66,0.0,0.0,48,0.00,SCT,,0.00,28.0,WeatherDisplay:10.37,2013-10-07 15:35:00,
2013-10-07 17:40:00,62.7,43.3,30.30,ENE,66,0.0,0.0,49,0.00,SCT,,0.00,19.0,WeatherDisplay:10.37,2013-10-07 15:40:00,
2013-10-07 17:45:00,62.3,43.9,30.30,ENE,66,0.0,0.0,51,0.00,SCT,,0.00,14.0,WeatherDisplay:10.37,2013-10-07 15:45:00,
2013-10-07 17:50:00,62.0,43.7,30.30,ENE,66,0.0,0.0,51,0.00,SCT,,0.00,11.0,WeatherDisplay:10.37,2013-10-07 15:50:00,
2013-10-07 17:55:00,61.5,43.7,30.30,ENE,66,0.0,0.0,52,0.00,SCT,,0.00,9.0,WeatherDisplay:10.37,2013-10-07 15:55:00,
2013-10-07 18:00:00,61.0,43.7,30.30,ENE,66,0.0,0.0,53,0.00,SCT,,0.00,7.0,WeatherDisplay:10.37,2013-10-07 16:00:00,
2013-10-07 18:05:00,60.5,43.8,30.30,ENE,66,0.0,0.0,54,0.00,SCT,,0.00,5.0,WeatherDisplay:10.37,2013-10-07 16:05:00,
2013-10-07 18:10:00,60.0,43.8,30.31,ENE,66,0.0,0.0,55,0.00,SCT,,0.00,0.0,WeatherDisplay:10.37,2013-10-07 16:10:00,
2013-10-07 18:15:00,59.3,43.6,30.31,ENE,66,0.0,0.0,56,0.00,SCT,,0.00,0.0,WeatherDisplay:10.37,2013-10-07 16:15:00,
2013-10-07 18:20:00,58.7,43.0,30.31,ENE,66,0.0,0.0,56,0.00,SCT,,0.00,0.0,WeatherDisplay:10.37,2013-10-07 16:20:00,
2013-10-07 18:25:00,58.1,43.4,30.30,ENE,66,0.0,0.0,58,0.00,SCT,,0.00,0.0,WeatherDisplay:10.37,2013-10-07 16:25:00,
2013-10-07 18:30:00,57.5,43.3,30.30,ENE,66,0.0,0.0,59,0.00,SCT,,0.00,0.0,WeatherDisplay:10.37,2013-10-07 16:30:00,
2013-10-07 18:35:00,57.0,43.2,30.31,ENE,66,0.0,0.0,60,0.00,SCT,,0.00,0.0,WeatherDisplay:10.37,2013-10-07 16:35:00,
2013-10-07 18:40:00,56.5,43.2,30.31,ENE,66,0.0,0.0,61,0.00,SCT,,0.00,0.0,WeatherDisplay:10.37,2013-10-07 16:40:00,
2013-10-07 18:45:00,55.9,43.1,30.31,ENE,66,0.0,0.0,62,0.00,SCT,,0.00,0.0,WeatherDisplay:10.37,2013-10-07 16:45:00,
2013-10-07 18:50:00,55.4,43.0,30.31,ENE,66,0.0,0.0,63,0.00,SCT,,0.00,0.0,WeatherDisplay:10.37,2013-10-07 16:50:00,
2013-10-07 18:55:00,54.8,42.9,30.31,ENE,66,0.0,0.0,64,0.00,SCT,,0.00,0.0,WeatherDisplay:10.37,2013-10-07 16:55:00,
2013-10-07 19:01:00,54.3,42.8,30.32,ENE,66,0.0,0.0,65,0.00,SCT,,0.00,0.0,WeatherDisplay:10.37,2013-10-07 17:01:00,
2013-10-07 19:06:00,53.8,42.7,30.32,ENE,66,0.0,0.0,66,0.00,SCT,,0.00,0.0,WeatherDisplay:10.37,2013-10-07 17:06:00,
2013-10-07 19:11:00,53.2,42.5,30.32,ENE,66,0.0,0.0,67,0.00,SCT,,0.00,0.0,WeatherDisplay:10.37,2013-10-07 17:11:00,
2013-10-07 19:16:00,52.8,42.5,30.32,ENE,66,0.0,1.2,68,0.00,SCT,,0.00,0.0,WeatherDisplay:10.37,2013-10-07 17:16:00,
2013-10-07 19:21:00,52.4,42.5,30.32,ENE,66,0.0,0.0,69,0.00,SCT,,0.00,0.0,WeatherDisplay:10.37,2013-10-07 17:21:00,
2013-10-07 19:26:00,52.0,42.5,30.32,ENE,66,0.0,0.0,70,0.00,SCT,,0.00,0.0,WeatherDisplay:10.37,2013-10-07 17:26:00,
2013-10-07 19:31:00,51.7,42.2,30.32,ENE,66,0.0,0.0,70,0.00,SCT,,0.00,0.0,WeatherDisplay:10.37,2013-10-07 17:31:00,
2013-10-07 19:36:00,51.4,42.3,30.32,ENE,66,0.0,0.0,71,0.00,SCT,,0.00,0.0,WeatherDisplay:10.37,2013-10-07 17:36:00,
2013-10-07 19:41:00,51.1,42.4,30.32,ENE,66,0.0,0.0,72,0.00,SCT,,0.00,0.0,WeatherDisplay:10.37,2013-10-07 17:41:00,
2013-10-07 19:46:00,50.8,42.1,30.32,ENE,66,0.0,0.0,72,0.00,SCT,,0.00,0.0,WeatherDisplay:10.37,2013-10-07 17:46:00,
2013-10-07 19:51:00,50.6,42.3,30.32,ENE,66,0.0,0.0,73,0.00,SCT,,0.00,0.0,WeatherDisplay:10.37,2013-10-07 17:51:00,
2013-10-07 19:56:00,50.2,41.9,30.32,ENE,66,0.0,0.0,73,0.00,SCT,,0.00,0.0,WeatherDisplay:10.37,2013-10-07 17:56:00,
2013-10-07 20:01:00,50.0,42.0,30.32,ENE,66,0.0,0.0,74,0.00,SCT,,0.00,0.0,WeatherDisplay:10.37,2013-10-07 18:01:00,
2013-10-07 20:06:00,49.7,42.1,30.32,ENE,66,0.0,0.0,75,0.00,SCT,,0.00,0.0,WeatherDisplay:10.37,2013-10-07 18:06:00,
2013-10-07 20:11:00,49.5,41.9,30.32,ENE,66,0.0,0.0,75,0.00,SCT,,0.00,0.0,WeatherDisplay:10.37,2013-10-07 18:11:00,
2013-10-07 20:16:00,49.2,41.6,30.32,ENE,66,0.0,0.0,75,0.00,SCT,,0.00,0.0,WeatherDisplay:10.37,2013-10-07 18:16:00,
2013-10-07 20:21:00,49.0,41.8,30.32,ENE,66,0.0,0.0,76,0.00,SCT,,0.00,0.0,WeatherDisplay:10.37,2013-10-07 18:21:00,
2013-10-07 20:26:00,48.7,41.5,30.32,ENE,66,0.0,0.0,76,0.00,SCT,,0.00,0.0,WeatherDisplay:10.37,2013-10-07 18:26:00,
2013-10-07 20:31:00,48.5,41.6,30.33,ENE,66,0.0,0.0,77,0.00,SCT,,0.00,0.0,WeatherDisplay:10.37,2013-10-07 18:31:00,
2013-10-07 20:36:00,48.3,41.4,30.33,ENE,66,0.0,0.0,77,0.00,SCT,,0.00,0.0,WeatherDisplay:10.37,2013-10-07 18:36:00,
2013-10-07 20:41:00,48.1,41.6,30.33,ENE,66,0.0,0.0,78,0.00,SCT,,0.00,0.0,WeatherDisplay:10.37,2013-10-07 18:41:00,
2013-10-07 20:46:00,47.9,41.4,30.33,ENE,66,0.0,0.0,78,0.00,SCT,,0.00,0.0,WeatherDisplay:10.37,2013-10-07 18:46:00,
2013-10-07 20:51:00,47.7,41.2,30.33,ENE,66,0.0,0.0,78,0.00,SCT,,0.00,0.0,WeatherDisplay:10.37,2013-10-07 18:51:00,
2013-10-07 20:56:00,47.5,41.3,30.33,ENE,66,0.0,0.0,79,0.00,SCT,,0.00,0.0,WeatherDisplay:10.37,2013-10-07 18:56:00,
2013-10-07 21:01:00,47.3,41.1,30.33,ENE,66,0.0,0.0,79,0.00,SCT,,0.00,0.0,WeatherDisplay:10.37,2013-10-07 19:01:00,
2013-10-07 21:06:00,47.1,40.9,30.33,ENE,66,0.0,0.0,79,0.00,SCT,,0.00,0.0,WeatherDisplay:10.37,2013-10-07 19:06:00,
2013-10-07 21:11:00,46.9,40.7,30.33,ENE,66,0.0,0.0,79,0.00,SCT,,0.00,0.0,WeatherDisplay:10.37,2013-10-07 19:11:00,
2013-10-07 21:16:00,46.8,41.0,30.33,ENE,66,0.0,0.0,80,0.00,SCT,,0.00,0.0,WeatherDisplay:10.37,2013-10-07 19:16:00,
2013-10-07 21:21:00,46.7,41.2,30.33,ENE,66,0.0,0.0,81,0.00,SCT,,0.00,0.0,WeatherDisplay:10.37,2013-10-07 19:21:00,
2013-10-07 21:26:00,46.6,41.1,30.33,ENE,66,0.0,0.0,81,0.00,SCT,,0.00,0.0,WeatherDisplay:10.37,2013-10-07 19:26:00,
2013-10-07 21:31:00,46.4,40.9,30.33,ENE,66,0.0,0.0,81,0.00,SCT,,0.00,0.0,WeatherDisplay:10.37,2013-10-07 19:31:00,
2013-10-07 21:36:00,46.3,40.8,30.33,ENE,66,0.0,0.0,81,0.00,SCT,,0.00,0.0,WeatherDisplay:10.37,2013-10-07 19:36:00,
2013-10-07 21:41:00,46.1,40.6,30.33,ENE,66,0.0,0.0,81,0.00,SCT,,0.00,0.0,WeatherDisplay:10.37,2013-10-07 19:41:00,
2013-10-07 21:46:00,46.0,40.5,30.33,ENE,66,0.0,0.0,81,0.00,SCT,,0.00,0.0,WeatherDisplay:10.37,2013-10-07 19:46:00,
2013-10-07 21:51:00,45.8,40.6,30.33,ENE,66,0.0,0.0,82,0.00,SCT,,0.00,0.0,WeatherDisplay:10.37,2013-10-07 19:51:00,
2013-10-07 21:56:00,45.7,40.5,30.33,ENE,66,0.0,0.0,82,0.00,SCT,,0.00,0.0,WeatherDisplay:10.37,2013-10-07 19:56:00,
2013-10-07 22:01:00,45.5,40.3,30.33,ENE,66,0.0,0.0,82,0.00,SCT,,0.00,0.0,WeatherDisplay:10.37,2013-10-07 20:01:00,
2013-10-07 22:06:00,45.3,40.1,30.33,ENE,66,0.0,0.0,82,0.00,SCT,,0.00,0.0,WeatherDisplay:10.37,2013-10-07 20:06:00,
2013-10-07 22:11:00,45.2,40.3,30.33,ENE,66,0.0,0.0,83,0.00,SCT,,0.00,0.0,WeatherDisplay:10.37,2013-10-07 20:11:00,
2013-10-07 22:16:00,45.1,40.2,30.33,ENE,66,0.0,0.0,83,0.00,SCT,,0.00,0.0,WeatherDisplay:10.37,2013-10-07 20:16:00,
2013-10-07 22:21:00,45.0,40.1,30.33,ENE,66,0.0,0.0,83,0.00,SCT,,0.00,0.0,WeatherDisplay:10.37,2013-10-07 20:21:00,
2013-10-07 22:26:00,44.8,40.0,30.33,ENE,66,0.0,0.0,83,0.00,SCT,,0.00,0.0,WeatherDisplay:10.37,2013-10-07 20:26:00,
2013-10-07 22:31:00,44.7,39.9,30.33,ENE,66,0.0,0.0,83,0.00,SCT,,0.00,0.0,WeatherDisplay:10.37,2013-10-07 20:31:00,
2013-10-07 22:36:00,44.6,40.1,30.33,ENE,66,0.2,1.2,84,0.00,SCT,,0.00,0.0,WeatherDisplay:10.37,2013-10-07 20:36:00,
2013-10-07 22:41:00,44.5,40.0,30.33,ENE,66,0.0,0.0,84,0.00,SCT,,0.00,0.0,WeatherDisplay:10.37,2013-10-07 20:41:00,
2013-10-07 22:46:00,44.5,40.0,30.33,ENE,66,0.0,0.0,84,0.00,SCT,,0.00,0.0,WeatherDisplay:10.37,2013-10-07 20:46:00,
2013-10-07 22:51:00,44.5,40.3,30.33,ENE,66,0.0,0.0,85,0.00,SCT,,0.00,0.0,WeatherDisplay:10.37,2013-10-07 20:51:00,
2013-10-07 22:56:00,44.4,40.2,30.33,ENE,66,0.0,0.0,85,0.00,SCT,,0.00,0.0,WeatherDisplay:10.37,2013-10-07 20:56:00,
2013-10-07 23:01:00,44.3,40.1,30.33,ENE,66,0.0,1.2,85,0.00,SCT,,0.00,0.0,WeatherDisplay:10.37,2013-10-07 21:01:00,
2013-10-07 23:06:00,44.2,40.0,30.33,East,86,0.0,1.2,85,0.00,SCT,,0.00,0.0,WeatherDisplay:10.37,2013-10-07 21:06:00,
2013-10-07 23:11:00,44.1,39.9,30.33,East,86,0.0,0.0,85,0.00,SCT,,0.00,0.0,WeatherDisplay:10.37,2013-10-07 21:11:00,
2013-10-07 23:16:00,43.9,39.7,30.33,East,86,0.0,0.0,85,0.00,SCT,,0.00,0.0,WeatherDisplay:10.37,2013-10-07 21:16:00,
2013-10-07 23:21:00,43.8,39.6,30.33,East,86,0.0,0.0,85,0.00,SCT,,0.00,0.0,WeatherDisplay:10.37,2013-10-07 21:21:00,
2013-10-07 23:26:00,43.7,39.5,30.33,East,86,0.0,0.0,85,0.00,SCT,,0.00,0.0,WeatherDisplay:10.37,2013-10-07 21:26:00,
2013-10-07 23:31:00,43.6,39.4,30.33,East,86,0.0,0.0,85,0.00,SCT,,0.00,0.0,WeatherDisplay:10.37,2013-10-07 21:31:00,
2013-10-07 23:36:00,43.5,39.3,30.33,East,86,0.0,0.0,85,0.00,SCT,,0.00,0.0,WeatherDisplay:10.37,2013-10-07 21:36:00,
2013-10-07 23:41:00,43.4,39.2,30.33,East,86,0.0,0.0,85,0.00,SCT,,0.00,0.0,WeatherDisplay:10.37,2013-10-07 21:41:00,
2013-10-07 23:46:00,43.3,39.4,30.33,East,86,0.0,0.0,86,0.00,SCT,,0.00,0.0,WeatherDisplay:10.37,2013-10-07 21:46:00,
2013-10-07 23:51:00,43.2,39.3,30.33,East,86,0.0,0.0,86,0.00,SCT,,0.00,0.0,WeatherDisplay:10.37,2013-10-07 21:51:00,
2013-10-07 23:56:00,43.0,39.1,30.33,East,86,0.0,0.0,86,0.00,SCT,,0.00,0.0,WeatherDisplay:10.37,2013-10-07 21:56:00,